• In United Kingdom
  • List of Countries
  • For 7 days
  • Water Temperature
  • Satellite Maps
  • Weather Map
  • Weather Widgets
  • user-avatar
    Login

    Hourly Weather Swansea

    Today, 17 August, Thursday

    Time Temperature Precipitation Wind Pressure Humidity
    00:00 +17°C° 1.6 mm 6 mps 755 mmHg 96%
    01:00 +17°C° 1.4 mm 6 mps 755 mmHg 96%
    02:00 +17°C° 1.4 mm 6 mps 755 mmHg 96%
    03:00 +17°C° 1.4 mm 6 mps 754 mmHg 96%
    04:00 +17°C° 0.2 mm 6 mps 755 mmHg 96%
    05:00 +16°C° 0.2 mm 6 mps 755 mmHg 96%
    06:00 +16°C° 0.2 mm 6 mps 755 mmHg 95%
    07:00 +17°C° 0.1 mm 6 mps 755 mmHg 93%
    08:00 +17°C° 0.1 mm 6 mps 756 mmHg 90%
    09:00 +18°C° 0.1 mm 7 mps 756 mmHg 87%
    10:00 +18°C° 0 mm 7 mps 756 mmHg 83%
    11:00 +20°C° 0 mm 7 mps 756 mmHg 80%
    12:00 +20°C° 0 mm 7 mps 756 mmHg 77%
    13:00 +20°C° 0.2 mm 8 mps 756 mmHg 78%
    14:00 +20°C° 0.2 mm 8 mps 756 mmHg 80%
    15:00 +20°C° 0.2 mm 8 mps 756 mmHg 81%
    16:00 +18°C° 0.1 mm 7 mps 756 mmHg 83%
    17:00 +18°C° 0.1 mm 7 mps 756 mmHg 85%
    18:00 +17°C° 0.1 mm 7 mps 756 mmHg 86%
    19:00 +16°C° 0 mm 6 mps 756 mmHg 89%
    20:00 +15°C° 0 mm 6 mps 756 mmHg 91%
    21:00 +14°C° 0 mm 6 mps 755 mmHg 94%
    22:00 +14°C° 0.3 mm 7 mps 755 mmHg 93%
    23:00 +14°C° 0.3 mm 7 mps 755 mmHg 93%

    Tomorrow, 18 August, Friday

    Time Temperature Precipitation Wind Pressure Humidity
    00:00 +13°C° 0.3 mm 8 mps 755 mmHg 92%
    01:00 +13°C° 0.2 mm 8 mps 755 mmHg 92%
    02:00 +13°C° 0.2 mm 8 mps 755 mmHg 91%
    03:00 +12°C° 0.2 mm 8 mps 755 mmHg 91%
    04:00 +12°C° 0.1 mm 7 mps 756 mmHg 90%
    05:00 +12°C° 0.1 mm 7 mps 756 mmHg 90%
    06:00 +11°C° 0.1 mm 7 mps 756 mmHg 90%
    07:00 +12°C° 0.1 mm 7 mps 756 mmHg 85%
    08:00 +13°C° 0.1 mm 8 mps 757 mmHg 80%
    09:00 +15°C° 0.1 mm 8 mps 757 mmHg 76%
    10:00 +15°C° 0.2 mm 8 mps 757 mmHg 75%
    11:00 +16°C° 0.2 mm 9 mps 757 mmHg 74%
    12:00 +16°C° 0.2 mm 9 mps 757 mmHg 73%
    13:00 +16°C° 0.3 mm 10 mps 757 mmHg 73%
    14:00 +16°C° 0.3 mm 10 mps 757 mmHg 73%
    15:00 +16°C° 0.3 mm 11 mps 757 mmHg 73%
    16:00 +16°C° 0.1 mm 11 mps 758 mmHg 76%
    17:00 +14°C° 0.1 mm 10 mps 758 mmHg 78%
    18:00 +14°C° 0.1 mm 10 mps 758 mmHg 81%
    19:00 +13°C° 0.1 mm 10 mps 759 mmHg 82%
    20:00 +13°C° 0.1 mm 9 mps 759 mmHg 84%
    21:00 +12°C° 0.1 mm 9 mps 760 mmHg 85%
    22:00 +12°C° 0 mm 8 mps 760 mmHg 86%
    23:00 +12°C° 0 mm 8 mps 761 mmHg 87%

    Day after tomorrow, 19 August, Saturday

    Time Temperature Precipitation Wind Pressure Humidity
    00:00 +12°C° 0 mm 7 mps 761 mmHg 88%
    01:00 +12°C° 0 mm 7 mps 761 mmHg 88%
    02:00 +12°C° 0 mm 7 mps 761 mmHg 89%
    03:00 +12°C° 0 mm 7 mps 762 mmHg 89%
    04:00 +12°C° 0.1 mm 7 mps 762 mmHg 89%
    05:00 +12°C° 0.1 mm 7 mps 762 mmHg 89%
    06:00 +12°C° 0.1 mm 7 mps 762 mmHg 89%
    07:00 +12°C° 0.1 mm 7 mps 763 mmHg 86%
    08:00 +14°C° 0.1 mm 7 mps 763 mmHg 83%
    09:00 +15°C° 0.1 mm 8 mps 763 mmHg 80%
    10:00 +16°C° 0 mm 7 mps 764 mmHg 77%
    11:00 +16°C° 0 mm 7 mps 764 mmHg 74%
    12:00 +17°C° 0 mm 7 mps 764 mmHg 71%
    13:00 +17°C° 0.1 mm 7 mps 764 mmHg 72%
    14:00 +17°C° 0.1 mm 7 mps 764 mmHg 73%
    15:00 +17°C° 0.1 mm 8 mps 764 mmHg 73%
    16:00 +16°C° 0 mm 7 mps 764 mmHg 76%
    17:00 +16°C° 0 mm 6 mps 764 mmHg 79%
    18:00 +15°C° 0 mm 6 mps 764 mmHg 82%
    19:00 +15°C° 0 mm 6 mps 764 mmHg 83%
    20:00 +14°C° 0 mm 6 mps 764 mmHg 84%
    21:00 +14°C° 0 mm 6 mps 764 mmHg 86%
    22:00 +14°C° 0.6 mm 6 mps 764 mmHg 88%
    23:00 +14°C° 0.6 mm 6 mps 764 mmHg 91%

    20 August, Sunday

    Time Temperature Precipitation Wind Pressure Humidity
    00:00 +14°C° 0.6 mm 7 mps 764 mmHg 94%
    01:00 +14°C° 1.4 mm 7 mps 763 mmHg 95%
    02:00 +15°C° 1.4 mm 8 mps 763 mmHg 95%
    03:00 +15°C° 1.4 mm 8 mps 763 mmHg 96%
    04:00 +16°C° 0.5 mm 8 mps 762 mmHg 96%
    05:00 +17°C° 0.5 mm 8 mps 762 mmHg 96%
    06:00 +17°C° 0.5 mm 8 mps 762 mmHg 96%
    07:00 +17°C° 0.1 mm 8 mps 762 mmHg 96%
    08:00 +18°C° 0.1 mm 8 mps 763 mmHg 95%
    09:00 +18°C° 0.1 mm 8 mps 763 mmHg 94%
    10:00 +18°C° 0 mm 8 mps 763 mmHg 93%
    11:00 +18°C° 0 mm 8 mps 763 mmHg 92%
    12:00 +18°C° 0 mm 8 mps 763 mmHg 91%
    13:00 +20°C° 0 mm 8 mps 763 mmHg 89%
    14:00 +19°C° 0 mm 9 mps 763 mmHg 87%
    15:00 +21°C° 0 mm 9 mps 763 mmHg 85%
    16:00 +19°C° 0 mm 9 mps 762 mmHg 86%
    17:00 +19°C° 0 mm 9 mps 762 mmHg 86%
    18:00 +18°C° 0 mm 9 mps 761 mmHg 87%
    19:00 +17°C° 0 mm 9 mps 761 mmHg 87%
    20:00 +17°C° 0 mm 9 mps 761 mmHg 87%
    21:00 +16°C° 0 mm 9 mps 761 mmHg 87%
    22:00 +16°C° 0.2 mm 9 mps 761 mmHg 88%
    23:00 +16°C° 0.2 mm 9 mps 761 mmHg 89%

    21 August, Monday

    Time Temperature Precipitation Wind Pressure Humidity
    00:00 +16°C° 0.2 mm 9 mps 761 mmHg 90%
    01:00 +16°C° 0.2 mm 9 mps 761 mmHg 91%
    02:00 +16°C° 0.2 mm 8 mps 760 mmHg 92%
    03:00 +15°C° 0.2 mm 7 mps 760 mmHg 93%
    04:00 +15°C° 0 mm 7 mps 760 mmHg 92%
    05:00 +14°C° 0 mm 7 mps 760 mmHg 91%
    06:00 +14°C° 0 mm 7 mps 760 mmHg 91%
    07:00 +14°C° 0 mm 7 mps 760 mmHg 89%
    08:00 +15°C° 0 mm 8 mps 760 mmHg 87%
    09:00 +15°C° 0 mm 8 mps 760 mmHg 86%
    10:00 +15°C° 0.1 mm 8 mps 760 mmHg 83%
    11:00 +16°C° 0.1 mm 8 mps 760 mmHg 81%
    12:00 +16°C° 0.1 mm 9 mps 760 mmHg 79%
    13:00 +16°C° 0 mm 9 mps 760 mmHg 78%
    14:00 +17°C° 0 mm 9 mps 760 mmHg 76%
    15:00 +17°C° 0 mm 9 mps 760 mmHg 75%
    16:00 +17°C° 0 mm 8 mps 760 mmHg 78%
    17:00 +17°C° 0 mm 8 mps 760 mmHg 81%
    18:00 +16°C° 0 mm 7 mps 760 mmHg 84%
    19:00 +16°C° 0 mm 7 mps 761 mmHg 86%
    20:00 +15°C° 0 mm 6 mps 761 mmHg 89%
    21:00 +15°C° 0 mm 6 mps 762 mmHg 91%
    22:00 +14°C° 0 mm 6 mps 762 mmHg 90%
    23:00 +14°C° 0 mm 6 mps 762 mmHg 90%

    22 August, Tuesday

    Time Temperature Precipitation Wind Pressure Humidity
    00:00 +14°C° 0 mm 7 mps 762 mmHg 89%
    01:00 +14°C° 0 mm 7 mps 763 mmHg 89%
    02:00 +15°C° 0 mm 7 mps 763 mmHg 88%
    03:00 +15°C° 0 mm 7 mps 763 mmHg 88%
    04:00 +14°C° 0 mm 7 mps 764 mmHg 88%
    05:00 +14°C° 0 mm 7 mps 765 mmHg 88%
    06:00 +13°C° 0 mm 6 mps 765 mmHg 88%
    07:00 +14°C° 0 mm 6 mps 766 mmHg 85%
    08:00 +16°C° 0 mm 6 mps 766 mmHg 81%
    09:00 +17°C° 0 mm 6 mps 767 mmHg 77%
    10:00 +17°C° 0 mm 6 mps 767 mmHg 75%
    11:00 +19°C° 0 mm 6 mps 767 mmHg 73%
    12:00 +19°C° 0 mm 6 mps 768 mmHg 71%
    13:00 +19°C° 0 mm 6 mps 768 mmHg 71%
    14:00 +19°C° 0 mm 6 mps 768 mmHg 72%
    15:00 +19°C° 0 mm 6 mps 768 mmHg 72%
    16:00 +17°C° 0 mm 6 mps 768 mmHg 74%
    17:00 +17°C° 0 mm 6 mps 768 mmHg 77%
    18:00 +16°C° 0 mm 5 mps 769 mmHg 79%
    19:00 +15°C° 0 mm 5 mps 769 mmHg 82%
    20:00 +14°C° 0 mm 5 mps 770 mmHg 85%
    21:00 +12°C° 0 mm 4 mps 770 mmHg 89%
    22:00 +12°C° 0 mm 4 mps 770 mmHg 89%
    23:00 +11°C° 0 mm 4 mps 770 mmHg 90%
    Show more